x

La Perouse Bank (46206) Wave Buoy

11:00 - Sat 20th Sep 2014 All times are PDT. -7 hours from GMT.

  • Sig Wave height 9.5ft
  • Peak Period 12s
  • Wind
  • Sea Temp 55°f
  • Air Temp 56°f
  • Sea Pressure 1019.6mb
  • La Perouse Bank
  • La Perouse Bank

More Historic Weather Station data

Upgrade to MSW Pro to gain access to the past 30 days of data for over 8000 Wavebouys and Weather Stations around the globe.

Join Pro

Comparision Forecast

View Surf forecast
   
sam. 09/20 11:00 9.5ft 12s  -  2 mph 1019.6mb 55f 56f
10:00 10ft 11s 2 4 mph 1020mb 54f 54f
9:00 10ft 12s 4
mph
1020.2mb 54f 54f
8:00 10ft 12s 4
mph
1020.1mb 53f 53f
7:00 10.5ft 12s 2 4 mph 1020.3mb 53f 52f
6:00 9ft 12s 2 4 mph 1020.5mb 53f 53f
5:00 9.5ft 13s 4 7 mph 1020.5mb 53f 53f
4:00 10ft 14s 4 7 mph 1021.1mb 53f 53f
3:00 10ft 12s 4
mph
1021.2mb 54f 52f
2:00 9.5ft 13s 4 7 mph 1021.3mb 54f 53f
1:00 10ft 13s  -  2 mph 1021.3mb 54f 53f
12:00 11ft 13s 2 4 mph 1021.5mb 54f 52f
ven. 09/19 11:00 11ft 12s 4 7 mph 1021.5mb 55f 53f
10:00 12ft 12s 2 7 mph 1021.5mb 54f 53f
9:00 11.5ft 11s 2 4 mph 1021mb 54f 54f
8:00 12.5ft 12s 4 9 mph 1020.6mb 53f 54f
7:00 11.5ft 10s 4 7 mph 1020.7mb 54f 54f
6:00 9ft 10s 4 7 mph 1020.7mb 55f 55f
5:00 8ft 10s 4 9 mph 1020.8mb 55f 56f
4:00 7ft 10s 2 4 mph 1020.5mb 54f 57f
3:00 7ft 10s 4 7 mph 1020.2mb 55f 56f
2:00 6ft 10s  -  2 mph 1019.8mb 55f 55f
1:00 6ft 9s 7
mph
1019.6mb 55f 55f
12:00 6ft 9s 4
mph
1019.1mb 54f 55f
11:00 6.5ft 10s 7 9 mph 1018.5mb 53f 55f
10:00 6ft 9s 9
mph
1017.6mb 53f 55f
9:00 6ft 9s 7 9 mph 1016.5mb 53f 55f
8:00 6ft 10s 4 7 mph 1015.6mb 53f 54f
7:00 6ft 9s 4 7 mph 1015mb 54f 55f
6:00 5ft 17s 4 7 mph 1014.3mb 54f 57f
5:00 4.5ft 16s 11 13 mph 1014.2mb 54f 56f
4:00 4.5ft 17s 13 18 mph 1013.9mb 54f 56f
3:00 4.5ft 17s 13 18 mph 1013.9mb 55f 56f
2:00 5ft 17s 13 16 mph 1014mb 55f 56f
1:00 4.5ft 16s 11 13 mph 1013.9mb 55f 57f
12:00 5ft 17s 9
mph
1013.8mb 56f 57f
jeu. 09/18 11:00 5ft 9s 9 11 mph 1013.9mb 55f 57f
10:00 5ft 10s 9
mph
1013.3mb 55f 57f
9:00 5ft 17s 7 9 mph 1013.2mb 55f 57f
8:00 5ft 9s 4 7 mph 1012.5mb 55f 57f
7:00 5ft 9s 4 7 mph 1011.6mb 55f 57f
6:00 5ft 17s 7
mph
1011.5mb 55f 57f
5:00 5ft 17s 4
mph
1011.2mb 56f 56f
4:00 5ft 17s 2 4 mph 1011.1mb 55f 57f
3:00 4.5ft 10s 4
mph
1010.6mb 54f 56f
2:00 4.5ft 18s 4
mph
1010.3mb 54f 56f
1:00 4.5ft 10s 7
mph
1009.8mb 53f 55f
12:00 4.5ft 17s 4 7 mph 1009.3mb 53f 55f
11:00 4.5ft 11s 7 9 mph 1008.7mb 54f 56f
10:00 5ft 10s 9 11 mph 1008.2mb 55f 56f
9:00 4.5ft 11s 11 16 mph 1007.8mb 55f 56f
8:00 5ft 18s 13 16 mph 1007.3mb 55f 56f
7:00 5ft 18s 9 11 mph 1007mb 55f 56f
6:00 4.5ft 18s 9
mph
1006.9mb 53f 56f
5:00 4.5ft 12s 7 9 mph 1007.2mb 53f 55f
4:00 4.5ft 12s 4 7 mph 1007.4mb 53f 55f
3:00 5ft 11s 7 9 mph 1007.3mb 53f 55f
2:00 5ft 12s 4 7 mph 1007.5mb 53f 55f
1:00 5.5ft 11s 2 4 mph 1007.5mb 53f 55f
12:00 5ft 18s 2 4 mph 1007.3mb 52f 56f
mer. 09/17 11:00 5ft 12s 4 7 mph 1007.8mb 53f 55f
10:00 5.5ft 11s 4
mph
1007.8mb 53f 55f
9:00 5ft 12s 2 4 mph 1007.8mb 53f 55f
8:00 5.5ft 12s 2 4 mph 1007.5mb 53f 54f
7:00 5ft 12s 2 4 mph 1007.6mb 54f 55f
6:00 5.5ft 12s 2 4 mph 1008mb 54f 56f
5:00 5ft 13s 2 4 mph 1008.3mb 53f 56f
4:00 5.5ft 10s 2 4 mph 1008.2mb 54f 56f
3:00 5ft 13s 2 4 mph 1008.2mb 54f 56f
2:00 5ft 13s 2 4 mph 1008.8mb 55f 56f
1:00 5ft 12s 2 4 mph 1009mb 55f 56f
12:00 5ft 13s 4
mph
1009.1mb 56f 56f
11:00 6ft 13s 4 7 mph 1009.1mb 54f 56f
10:00 6ft 11s 7 9 mph 1009.1mb 53f 56f
9:00 6.5ft 12s 7 9 mph 1009.2mb 52f 55f
8:00 7ft 13s 4 7 mph 1009.1mb 52f 53f
7:00 6ft 14s 4 7 mph 1009.1mb 51f 55f
6:00 6ft 14s 7 9 mph 1008.9mb 52f 55f
5:00 6ft 13s 7
mph
1009.1mb 51f 54f
4:00 6ft 14s 9
mph
1009.5mb 51f 54f
3:00 6ft 14s 7 11 mph 1010.1mb 51f 53f
2:00 6ft 14s 9 11 mph 1010.8mb 51f 54f
1:00 5.5ft 14s 9 11 mph 1011.1mb 51f 54f
12:00 5ft 14s 11 13 mph 1011.4mb 51f 54f
mar. 09/16 11:00 5ft 14s 9 13 mph 1011.9mb 51f 54f
10:00 5.5ft 14s 9 13 mph 1011.8mb 51f 53f
9:00 6ft 14s 9 11 mph 1011.9mb 54f 53f
8:00 6ft 13s 9 11 mph 1011.8mb 56f 53f